GFSSE_sfc_rhum_132.txt.gz
RH
67 70 73 69 67 74 69 75 77 77 76 76 76 76 76 75 77 76 77 76 76 76 75 75 73 73 71 70 70 70 72 72 72 72 71 72 73 77 74 68 69 61 73
50 70 71 70 75 72 74 78 77 77 76 76 76 76 76 77 77 76 78 77 75 75 74 73 74 72 74 74 74 74 72 75 75 72 70 70 72 74 75 71 69 66 73
51 63 66 75 74 74 75 74 77 76 76 76 75 75 76 76 75 75 74 74 73 74 74 74 75 74 74 74 73 74 74 73 73 71 71 59 68 71 73 73 73 72 74
46 55 62 79 76 73 76 75 75 76 76 76 75 75 75 75 74 72 71 72 72 74 73 73 72 72 74 75 74 73 70 70 67 68 66 51 56 74 74 74 75 74 76
53 51 64 74 76 75 74 74 73 74 76 75 74 75 74 74 74 73 71 71 71 74 72 72 70 70 71 71 71 70 69 69 67 64 56 63 65 74 76 72 71 72 75
75 52 68 74 73 75 74 75 74 74 75 76 75 74 72 73 73 71 71 70 71 72 72 70 71 72 70 70 69 69 70 68 67 51 54 64 71 67 67 65 65 66 68
46 50 57 78 76 75 74 75 75 73 74 75 74 73 74 71 71 70 71 71 71 70 70 67 66 67 67 67 66 67 66 66 57 51 51 60 72 71 66 66 67 67 66
40 44 55 74 75 75 74 75 75 74 74 75 75 73 72 74 70 70 70 70 70 70 70 70 71 69 64 62 61 63 65 66 45 51 56 61 75 69 65 65 66 66 67
37 42 52 59 72 74 75 75 74 74 74 73 75 74 73 71 68 68 70 69 68 67 69 70 71 72 71 67 64 61 64 64 56 53 46 63 74 66 63 64 66 67 70
35 35 46 54 56 64 63 73 73 73 73 73 73 72 74 68 65 66 74 71 66 66 66 68 69 70 72 72 71 68 67 67 51 44 54 68 72 62 62 63 66 68 71
45 53 63 57 56 74 71 68 72 72 74 72 70 71 73 61 57 59 68 68 62 63 65 65 68 70 70 73 74 72 70 60 35 42 52 77 73 64 64 65 66 71 75
49 89 86 76 51 53 48 70 73 65 64 62 64 76 92 69 54 44 64 71 67 67 68 72 74 72 67 57 62 74 65 44 37 44 56 76 70 68 66 67 70 74 78
68 61 92 79 86 54 64 66 60 62 67 55 58 66 68 70 64 54 66 59 64 69 63 65 62 63 56 57 49 53 47 39 36 43 63 74 66 67 68 68 70 74 77
54 60 60 84 84 68 68 61 56 51 45 47 64 68 72 71 84 79 62 65 68 62 66 62 55 55 51 52 37 33 34 33 36 45 64 73 70 66 66 67 69 73 77
45 52 51 57 75 87 80 93 59 58 48 47 56 94 85 63 64 59 69 72 67 58 59 66 63 56 55 45 41 39 36 38 36 42 55 72 72 73 70 68 70 73 75
39 48 48 52 58 62 70 68 65 66 50 53 52 63 63 62 68 62 67 62 58 62 56 60 65 61 59 44 45 41 42 41 46 47 48 61 74 75 76 75 73 72 71
40 49 53 58 54 70 61 58 70 64 42 58 56 60 59 72 64 77 72 72 64 61 60 60 59 59 49 43 50 47 44 45 45 45 49 46 57 76 76 75 73 75 75
38 48 55 42 50 59 58 63 69 65 55 60 58 60 56 69 64 76 72 76 80 83 72 64 62 57 50 52 55 54 52 50 51 50 52 47 51 41 73 75 75 78 76
47 49 58 53 55 67 64 65 58 65 61 61 63 59 62 62 60 79 98 92 85 96 96 59 55 55 56 52 44 50 51 53 55 35 49 50 48 49 55 76 77 81 76
43 47 58 58 65 70 68 71 68 81 71 62 61 61 65 67 61 89 92 79 88 93 94 76 72 66 59 54 29 36 48 49 49 47 42 38 43 48 47 65 82 75 80
42 47 60 70 74 68 67 69 71 72 66 60 63 59 78 83 63 83 93 89 92 97 97 71 67 72 71 63 70 64 60 71 54 64 70 49 39 39 44 55 60 64 70
45 50 70 73 70 69 71 80 82 76 68 59 66 62 61 58 62 73 87 95 94 95 83 71 75 88 92 86 89 98 97 97 84 67 86 80 74 45 44 48 48 62 61
46 53 72 76 72 72 74 86 85 73 73 70 68 64 60 56 58 78 75 89 90 96 92 82 77 84 79 94 90 96 96 98 95 92 90 88 80 54 54 51 52 58 60
43 46 62 67 76 67 73 78 80 78 75 69 67 70 69 60 65 64 62 67 78 94 92 82 68 85 88 96 95 89 88 92 95 98 96 94 86 49 56 58 50 56 70
38 40 56 66 75 73 74 79 74 73 93 91 77 76 73 72 65 63 63 64 71 73 81 78 76 79 80 89 87 90 89 68 82 63 73 72 76 64 57 59 48 61 63
37 38 50 70 78 78 75 76 79 79 95 91 87 78 67 65 65 70 64 70 76 78 79 83 80 79 84 83 85 77 73 72 69 68 68 64 59 71 66 63 54 58 74

GFSSE_sfc_rhum_135.txt.gz
RH
82 81 70 66 77 64 68 79 75 80 79 79 76 75 75 76 77 78 77 77 77 76 75 75 74 71 71 71 73 72 72 73 72 73 73 75 74 78 76 73 71 67 75
72 79 72 69 68 75 75 85 76 75 76 77 77 77 77 77 77 76 76 76 75 75 75 75 74 74 75 75 73 73 75 75 76 70 71 72 73 74 74 69 71 70 73
71 76 75 74 73 75 73 76 75 77 77 76 77 77 75 75 76 76 74 73 73 74 75 75 75 74 74 74 75 75 74 76 73 72 71 75 75 73 73 72 73 75 74
65 72 75 82 78 74 74 77 77 77 77 77 76 76 76 76 74 72 73 74 76 75 74 75 75 75 75 75 74 72 73 71 71 69 71 65 65 74 74 76 75 76 77
72 70 72 78 78 75 76 77 77 76 76 76 76 76 75 74 72 72 72 71 72 74 73 71 71 70 70 70 71 71 70 69 67 63 67 78 83 75 74 74 71 71 73
76 70 76 76 76 74 75 75 75 74 73 75 74 75 74 74 71 71 72 73 72 71 71 72 71 70 70 70 70 70 68 67 66 56 68 77 78 69 67 65 65 67 69
68 78 74 78 76 73 74 75 75 75 76 76 75 71 74 72 71 72 71 70 72 68 69 70 71 68 67 66 66 64 64 66 64 59 68 78 80 72 66 67 68 68 69
66 70 72 77 74 73 72 74 74 75 75 75 75 73 73 72 71 71 71 71 70 70 69 67 65 64 63 62 62 63 64 64 51 60 68 78 78 70 66 67 68 68 69
63 71 78 78 74 73 74 75 75 75 75 73 73 73 74 71 71 71 70 70 70 70 70 71 72 70 66 63 62 66 64 63 66 63 58 78 76 68 65 67 68 69 71
65 68 80 81 82 86 84 74 74 74 75 73 74 73 72 68 68 70 76 74 68 68 69 70 71 73 72 72 70 68 65 65 65 60 69 77 76 65 65 67 68 70 72
71 90 80 78 87 88 84 74 74 72 73 74 74 70 78 79 72 69 72 70 67 67 67 68 70 71 71 73 74 72 67 78 65 62 73 78 76 66 67 69 69 73 78
78 94 90 93 81 78 67 84 87 81 92 91 91 85 91 84 80 68 72 68 65 67 68 71 71 69 69 73 75 76 78 78 58 61 74 80 79 70 69 70 74 78 80
83 76 90 88 94 73 74 95 96 87 86 85 78 78 92 78 77 76 87 81 86 75 78 73 78 76 71 74 67 70 79 65 57 58 68 80 80 72 71 72 75 77 78
78 71 76 89 90 91 95 94 97 84 81 76 89 83 81 93 90 86 84 85 84 84 82 75 76 66 68 62 64 59 66 49 58 63 76 79 78 74 70 71 76 77 77
76 87 86 88 90 87 89 94 94 92 67 72 53 75 92 93 88 91 80 82 80 75 82 76 74 63 61 54 45 43 44 48 54 58 72 76 77 77 76 73 76 77 77
71 83 72 75 86 92 86 93 85 78 67 72 58 68 61 89 76 78 74 78 83 76 64 65 72 67 63 50 48 42 39 51 51 57 64 73 77 78 78 78 78 77 73
60 60 66 72 83 82 88 83 83 70 58 70 77 78 77 70 78 90 95 94 95 96 86 78 64 66 64 49 47 52 48 44 47 52 55 58 80 78 78 78 77 76 77
55 62 60 50 69 63 70 77 82 65 77 88 73 70 63 64 92 93 96 94 93 94 85 79 73 68 60 54 53 58 51 55 50 49 54 56 57 49 80 78 76 76 80
57 64 56 59 66 72 72 74 76 74 70 85 79 69 70 71 90 93 92 94 93 96 93 94 83 75 63 60 58 60 61 64 60 60 80 82 75 74 87 82 79 81 78
55 62 54 66 68 64 78 80 77 82 87 72 83 88 75 89 90 95 92 85 91 92 97 98 92 91 77 82 42 59 74 83 62 70 80 79 75 80 91 90 85 84 80
57 65 64 69 65 74 76 83 86 81 83 70 80 70 53 81 90 91 96 86 94 97 93 95 96 94 93 88 68 63 78 82 80 70 79 90 85 85 92 91 84 81 80
57 72 63 69 76 73 92 88 85 80 78 77 77 75 65 78 90 86 91 91 92 92 92 97 96 96 96 91 95 97 95 91 81 75 87 63 70 87 71 60 62 67 75
56 68 76 77 76 87 84 87 86 79 80 83 76 75 74 66 83 83 87 89 91 94 90 94 87 95 92 91 95 91 87 94 94 88 86 90 93 92 77 72 82 62 83
57 66 73 77 72 78 85 87 84 77 89 92 85 83 68 64 80 87 86 91 95 95 84 87 97 95 90 85 90 95 98 97 95 96 95 96 86 77 72 87 71 70 86
57 65 71 78 83 80 85 86 82 92 94 95 93 80 77 72 65 69 84 94 97 97 95 87 86 90 94 93 93 94 96 99 96 95 87 93 95 80 75 90 57 79 85
50 61 70 82 84 88 86 86 88 86 82 86 90 88 87 85 81 75 72 74 83 84 82 87 84 84 85 94 94 97 97 97 97 84 68 80 72 73 70 80 78 81 95

GFSSE_sfc_rhum_138.txt.gz
RH
88 85 72 67 64 64 69 68 74 78 77 77 76 77 76 78 77 77 77 78 77 76 74 74 74 74 74 74 74 75 74 76 75 76 74 71 73 74 74 75 75 72 76
76 81 69 64 60 60 65 70 78 77 78 77 77 77 77 78 76 78 77 77 76 76 76 72 72 72 70 72 74 74 74 74 75 73 72 72 72 73 72 72 73 71 73
75 81 76 72 72 72 76 75 75 77 77 77 77 77 76 76 75 75 73 74 76 74 74 74 75 74 74 74 74 74 74 73 75 73 75 80 76 72 72 72 72 72 72
73 87 84 78 74 65 72 76 77 77 77 77 77 76 76 76 75 73 74 74 74 74 76 74 75 74 73 74 76 74 73 75 73 71 77 74 66 74 75 75 77 77 76
80 84 84 78 74 72 78 73 82 77 77 76 76 77 74 73 72 72 74 75 74 74 72 73 73 72 72 73 74 72 72 70 69 65 77 88 85 74 76 77 73 74 76
81 84 75 77 74 76 78 78 77 76 75 76 76 74 73 74 71 71 72 71 73 71 70 70 70 70 70 70 70 70 68 67 66 72 82 85 85 74 71 68 66 67 69
84 88 76 77 74 77 76 76 74 75 75 73 75 73 74 71 73 73 74 71 70 70 71 72 68 68 68 68 66 65 66 68 62 70 79 82 80 72 66 67 69 70 71
82 82 74 75 73 74 75 75 76 76 75 74 71 75 73 72 73 72 69 69 66 65 64 64 62 62 62 62 62 61 65 67 57 70 77 83 81 71 68 69 70 70 71
81 86 85 77 74 72 74 74 75 75 75 73 74 72 72 71 71 70 70 70 68 69 68 67 65 63 62 62 62 67 65 65 67 74 66 83 79 70 68 70 71 72 74
89 91 94 88 86 88 87 74 73 74 73 72 72 73 70 70 70 70 76 73 68 68 68 69 70 72 73 73 71 70 65 66 65 67 74 80 79 68 68 70 71 73 75
88 91 93 92 94 94 92 81 76 72 72 73 74 72 79 84 80 74 74 69 67 66 66 67 69 70 72 74 74 73 68 80 70 68 78 78 79 68 68 70 72 74 77
93 93 94 92 94 93 75 91 91 84 93 93 91 87 93 87 83 71 76 69 66 66 67 69 69 70 70 78 79 74 84 85 71 66 76 80 77 70 70 72 74 78 78
85 76 89 90 93 92 92 98 98 98 93 90 87 88 91 83 88 86 90 92 92 78 82 76 78 82 79 78 76 78 80 84 76 65 65 81 79 74 73 73 76 77 78
76 73 76 87 92 91 96 96 96 91 93 87 84 75 74 91 92 88 86 86 88 91 88 85 82 76 76 74 73 70 76 74 64 65 72 80 80 76 74 74 78 78 78
73 74 78 88 91 91 92 95 95 95 96 92 90 90 93 91 80 91 90 92 86 86 90 88 88 74 73 68 63 66 68 58 58 64 74 76 80 79 75 74 78 79 78
76 80 78 89 89 91 89 87 83 87 81 87 68 90 85 90 90 96 95 95 96 97 89 79 77 77 72 65 54 47 53 54 56 59 81 88 79 81 80 80 81 81 79
77 85 80 85 89 88 70 86 88 88 70 84 63 74 79 85 95 94 95 92 95 96 91 90 84 82 73 63 53 53 53 55 56 63 79 83 88 82 85 82 91 81 79
73 76 78 63 84 89 88 86 82 77 82 91 79 80 77 92 90 90 93 90 92 87 90 92 85 90 79 68 71 68 69 63 66 71 75 92 76 85 84 73 86 88 80
66 70 74 75 76 82 80 84 85 82 88 90 81 82 91 86 81 88 90 92 89 93 98 90 92 88 88 75 70 70 69 59 64 67 85 82 83 76 75 74 85 91 78
68 62 66 69 73 81 84 94 86 94 86 77 85 94 92 94 89 91 90 86 90 93 96 96 96 96 94 96 59 58 72 76 86 89 90 84 76 71 80 89 92 92 80
65 69 71 74 70 80 84 89 87 86 90 84 84 72 92 87 85 87 93 79 92 94 94 91 97 92 94 94 72 58 77 88 83 85 88 90 88 87 91 95 97 95 86
61 69 74 70 74 85 86 89 88 83 91 85 85 70 90 91 81 84 90 86 92 92 93 87 94 94 93 94 96 96 92 77 81 71 85 77 88 93 91 84 87 87 84
67 68 72 72 75 86 86 93 92 90 96 92 90 83 89 87 81 84 86 85 90 92 87 87 88 92 81 90 93 82 83 91 94 85 70 84 89 95 89 91 84 82 89
64 63 72 81 78 79 87 89 81 78 92 93 83 86 85 88 87 85 81 85 89 94 86 86 92 90 86 79 94 94 94 94 90 90 93 92 90 78 83 90 80 84 87
62 65 67 80 82 87 87 88 87 90 92 94 94 87 79 92 84 84 86 84 92 95 91 91 95 92 95 92 94 95 95 98 98 97 97 91 90 74 68 89 79 94 88
60 63 70 83 87 90 88 89 89 91 91 89 93 92 88 83 84 88 84 92 95 96 92 91 89 91 94 94 92 96 96 94 95 99 97 96 85 72 79 89 80 96 95

GFSSE_sfc_rhum_141.txt.gz
RH
86 86 69 70 72 67 69 77 76 78 77 77 76 77 78 77 77 77 78 78 78 75 74 75 75 74 75 74 73 72 74 75 75 73 75 76 76 76 76 75 74 75 74
83 84 68 65 62 64 67 75 77 78 78 77 77 77 77 78 79 77 78 77 78 75 73 72 72 71 71 71 71 72 74 75 75 73 72 73 74 72 72 72 74 75 75
84 84 74 64 59 70 75 70 79 77 78 78 78 78 76 75 76 75 77 76 76 74 71 72 70 71 72 72 73 72 73 73 74 74 76 82 77 69 70 70 71 72 72
76 88 87 76 73 72 79 79 80 77 76 78 77 77 75 76 73 75 75 75 78 75 74 74 72 72 74 75 76 76 74 74 71 72 83 78 67 68 71 71 73 73 73
80 86 85 77 74 70 79 82 82 77 77 77 77 76 75 74 74 75 76 75 75 76 74 74 74 74 73 71 73 73 72 71 71 71 83 86 85 74 76 76 77 75 75
85 84 80 76 74 74 64 60 64 77 77 77 75 74 74 72 72 72 73 74 73 71 71 71 70 71 72 73 74 71 68 68 71 79 87 88 92 73 72 71 68 66 72
87 88 78 76 78 74 76 76 77 76 75 76 76 76 73 74 72 72 71 70 70 71 72 69 68 69 69 69 68 66 68 66 71 80 86 87 86 75 66 64 65 68 70
88 89 85 76 74 75 75 75 74 75 72 73 77 77 73 74 74 72 72 67 67 66 66 66 65 64 64 63 62 65 69 70 62 74 81 86 83 71 65 68 70 72 73
88 91 92 86 76 74 74 74 75 74 76 74 72 76 72 74 72 70 71 69 68 67 68 69 69 69 67 64 64 68 68 64 73 78 71 85 80 69 67 70 72 73 75
95 94 93 90 87 90 86 73 74 74 72 71 73 72 71 70 70 69 74 71 69 68 69 70 72 73 74 74 72 70 67 65 71 73 75 83 80 70 68 70 73 74 76
92 96 95 95 95 95 93 81 75 74 71 74 77 72 80 85 85 78 74 70 67 67 67 68 69 71 71 72 72 70 70 83 69 70 77 76 78 70 69 71 73 75 77
97 97 97 96 96 96 80 93 92 86 94 95 92 92 94 88 85 76 77 70 69 69 69 70 70 70 73 83 84 76 83 87 85 69 75 75 75 71 71 72 77 80 80
91 96 96 96 95 94 95 98 99 99 97 94 90 90 91 88 93 92 94 91 93 79 86 82 79 82 81 83 79 79 77 80 89 77 65 76 75 71 73 75 79 80 80
89 90 92 95 93 93 98 98 98 96 95 92 80 84 88 93 96 94 91 86 89 92 88 85 86 79 77 74 78 78 78 80 77 73 70 76 78 73 74 80 87 84 75
86 79 82 90 92 93 96 97 96 96 96 94 93 89 91 92 86 93 91 94 88 94 94 92 90 85 82 75 70 74 76 74 67 66 73 72 81 78 81 82 84 76 79
73 78 77 89 90 92 94 94 94 91 91 94 89 94 86 94 96 96 95 93 94 96 88 86 85 83 81 75 61 54 60 66 61 63 78 86 79 81 72 76 70 77 80
69 72 79 89 88 88 86 90 88 92 80 88 75 89 84 93 93 92 93 89 96 94 90 92 93 91 79 65 63 60 58 58 58 65 76 88 88 76 70 67 76 83 81
76 88 83 66 85 88 86 85 88 79 84 92 78 78 85 91 89 91 88 88 94 93 91 92 94 87 84 70 73 73 69 67 70 73 78 89 75 84 72 78 85 81 75
82 88 80 80 89 84 88 88 90 79 91 94 89 87 93 89 84 88 89 90 89 96 95 92 92 88 86 77 74 73 66 65 72 79 85 86 80 82 79 72 73 75 73
81 84 76 82 87 86 91 94 92 95 92 86 90 96 92 93 84 86 90 86 89 96 96 96 88 94 91 89 57 61 74 80 88 87 86 81 77 86 88 82 92 91 85
75 78 81 86 85 92 96 93 92 92 91 90 94 89 91 91 87 85 90 90 94 93 93 90 93 87 92 96 70 85 82 86 87 89 89 90 85 87 89 93 95 96 96
71 74 79 78 81 84 88 91 81 85 91 90 87 84 92 87 86 79 85 87 90 91 90 92 93 93 93 94 92 93 85 77 83 74 88 79 80 89 89 86 89 91 94
68 75 76 76 80 88 89 96 95 94 96 94 92 82 88 92 83 85 89 80 89 90 87 83 87 88 83 86 94 76 83 87 94 79 86 91 86 91 90 93 86 83 90
65 69 76 81 84 88 91 90 86 82 90 93 91 90 84 89 86 82 77 86 91 93 83 87 91 90 86 79 93 94 94 89 86 87 90 96 90 86 86 91 87 88 89
62 66 75 87 88 86 89 88 87 90 93 94 93 89 88 93 87 88 86 84 92 95 92 91 95 91 94 93 93 94 96 98 96 94 90 84 89 82 75 88 88 95 93
62 65 73 88 89 91 89 89 86 88 91 93 92 94 94 93 94 89 86 85 92 95 94 94 93 92 96 94 93 94 94 92 93 96 98 96 94 80 88 95 90 97 97

GFSSE_sfc_rhum_147.txt.gz
RH
77 71 71 72 76 79 80 79 77 76 77 80 78 77 77 77 75 75 76 77 75 75 75 75 74 74 70 70 70 71 71 74 75 74 75 76 76 75 74 76 68 50 76
62 68 74 70 71 71 78 80 78 76 73 76 79 77 75 77 74 73 75 75 77 76 75 76 75 75 72 69 70 73 73 74 76 74 71 70 71 74 75 75 74 65 76
61 60 59 69 67 65 68 71 73 74 77 80 77 77 77 76 75 74 75 73 74 73 72 71 70 70 69 71 72 73 76 76 76 76 73 48 50 70 71 71 73 74 76
57 59 58 73 66 73 72 76 71 74 77 78 79 79 76 77 75 74 75 72 73 72 68 68 69 69 72 71 73 74 72 71 73 72 49 46 44 71 69 72 72 72 71
60 53 54 68 74 74 70 71 72 76 80 78 78 76 76 77 77 74 75 74 72 73 72 74 73 73 73 74 74 74 73 72 72 59 53 58 52 65 73 76 75 74 75
58 55 64 69 71 78 72 69 79 78 78 76 78 75 75 75 76 76 74 74 74 74 74 72 70 69 70 71 69 66 66 68 73 54 54 60 54 73 72 71 68 65 69
52 51 72 68 70 72 71 75 76 79 81 75 77 77 74 73 74 73 70 71 70 72 72 71 69 69 70 65 64 67 68 71 52 54 51 54 54 78 69 65 65 68 73
54 70 74 67 73 72 76 74 67 69 76 67 76 76 74 74 73 72 70 71 70 69 69 67 67 65 62 60 64 70 71 64 51 52 50 47 64 72 66 67 70 72 81
52 57 76 75 68 64 69 71 70 74 80 74 76 76 73 73 70 69 68 68 66 66 65 65 65 65 64 65 68 68 68 67 48 44 38 41 69 72 68 68 71 73 77
62 63 70 79 79 82 80 71 76 79 75 75 76 74 75 72 72 76 75 72 70 68 68 68 68 68 69 69 70 69 66 65 40 42 41 42 72 72 68 68 70 73 73
69 67 63 77 76 79 78 77 76 71 74 74 72 80 71 59 59 56 73 70 68 68 68 68 67 68 70 70 67 67 75 39 37 40 38 71 74 70 68 70 76 66 67
71 74 78 85 76 71 64 76 79 68 71 72 70 74 64 64 64 57 67 77 77 73 72 71 69 68 64 40 42 64 42 44 49 47 42 73 72 69 70 71 72 70 71
65 67 78 76 78 70 77 84 73 75 64 65 74 71 68 61 59 53 51 49 54 61 46 47 47 44 48 47 45 42 45 49 45 49 54 73 71 68 71 73 73 77 68
65 68 70 73 77 75 72 70 74 61 60 56 59 69 68 58 64 64 47 54 58 54 62 58 48 56 58 57 48 46 43 42 41 43 47 74 71 67 70 72 76 74 65
60 65 66 72 79 79 81 72 68 66 59 60 62 66 61 58 62 59 62 59 60 56 53 56 56 54 58 53 50 46 45 46 44 42 40 70 72 73 74 73 74 72 65
56 61 60 68 75 75 74 79 69 65 62 63 60 65 67 61 68 63 63 60 58 57 54 56 59 57 52 46 44 42 41 43 50 48 38 46 70 75 75 76 73 73 70
54 58 62 66 70 72 71 70 64 63 52 56 56 69 66 68 70 72 62 59 57 64 68 61 60 56 47 40 47 43 42 48 43 49 45 43 48 77 76 71 82 79 76
56 66 64 56 62 68 70 68 61 59 56 57 56 58 61 68 72 70 59 57 60 62 60 56 55 51 50 45 46 46 50 47 53 51 49 53 50 46 59 66 75 77 75
57 64 65 63 64 67 73 65 66 65 58 59 57 52 62 68 69 66 59 56 66 63 60 56 55 57 53 49 44 45 44 43 45 38 49 50 48 48 45 66 72 74 79
55 62 63 58 67 74 68 72 60 62 60 58 57 52 63 66 68 64 58 60 62 59 60 58 66 59 56 54 39 40 46 46 49 48 44 41 49 56 50 59 53 52 80
55 59 60 64 72 71 66 65 63 58 63 62 61 68 70 70 73 73 58 58 64 65 68 68 63 64 52 60 48 42 43 47 44 44 40 40 48 46 50 54 58 53 52
57 60 64 66 73 74 64 67 62 62 61 59 63 70 68 70 72 64 66 63 69 58 69 70 71 56 54 58 51 52 42 40 37 37 40 45 48 44 47 52 54 59 53
54 61 65 68 72 75 74 70 70 69 70 64 65 59 64 70 66 72 72 63 68 65 57 67 65 68 51 57 68 51 46 42 43 44 47 47 55 48 44 50 52 57 61
51 54 62 68 71 69 75 72 75 57 57 55 60 60 60 69 70 67 64 70 68 62 69 66 63 66 66 57 58 55 64 60 51 44 46 50 49 45 50 45 45 54 60
48 52 58 68 74 72 75 76 67 65 56 61 63 72 72 70 68 65 64 64 70 67 76 81 77 74 64 61 58 59 67 59 66 58 46 45 46 45 51 54 51 51 58
47 52 56 70 76 76 76 75 78 75 69 62 66 62 60 59 62 72 68 75 75 74 76 75 81 76 75 72 63 63 58 57 55 59 58 57 52 47 47 55 57 56 57